Location: Unspecified
(0.0000°N, 0.0000°E)
Time: 06:50:00
(UTC+00:00)

RS-8 - Pass Details

Date: 08 October 2022
Orbit: 1579 x 1660 km, 83.0° (Epoch: 09 December)

Event Time Altitude Azimuth Distance (km) Brightness Sun altitude
Rises 20:41:05 0° 192° (SSW) 4,770 10.8 -43.1°
Reaches altitude 10° 20:44:04 10° 195° (SSW) 3,782 10.2 -43.8°
Enters shadow 20:50:02 43° 218° (SW) 2,101 8.7 -45.3°
